Waarnemingen

Advertentie
Mijn weer
La Coruna, Spanje (8001): temperatuur & dauwpunt: 15.01.2018 14:00:00 - 21.01.2018 14:00:00 (CET)La Coruna, Spanje (8001): windsnelheid: 15.01.2018 14:00:00 - 21.01.2018 14:00:00 (CET)La Coruna, Spanje (8001): windrichting: 15.01.2018 14:00:00 - 21.01.2018 14:00:00 (CET)La Coruna, Spanje (8001): luchtdruk: 15.01.2018 14:00:00 - 21.01.2018 14:00:00 (CET)La Coruna, Spanje (8001): zicht: 15.01.2018 14:00:00 - 21.01.2018 14:00:00 (CET)La Coruna, Spanje (8001): neerslag: 15.01.2018 14:00:00 - 21.01.2018 14:00:00 (CET)
Datum & Tijd tt [°C] td [°C] ff [km/u] ff [kn] dd ppp [hPa] vv [km] rr [mm]
21.01.2018 14:00:00 - - - - - - - -
21.01.2018 13:00:00 14,6 11,9 9 5 W 1031,9 15 -
21.01.2018 12:00:00 14,4 11,5 9 5 WZW 1032,1 14 0,0
21.01.2018 11:00:00 13,8 11,3 11 6 WZW 1031,7 15 0,0
21.01.2018 10:00:00 13,4 11,3 13 7 WZW 1031,3 18 -
21.01.2018 09:00:00 13,3 11,2 11 6 WZW 1030,9 13 0,0
21.01.2018 08:00:00 13,4 11,1 8 4 WZW 1030,5 18 0,0
21.01.2018 07:00:00 13,3 11,5 9 5 ZW 1030,4 15 -
21.01.2018 06:00:00 13,2 11,6 11 6 WZW 1030,3 19 0,0
21.01.2018 05:00:00 13,3 11,5 13 7 ZW 1030,5 18 0,0
21.01.2018 04:00:00 13,2 11,8 13 7 WZW 1030,7 10 -
21.01.2018 03:00:00 13,3 11,7 15 8 ZW 1030,5 19 0,0
21.01.2018 02:00:00 13,4 11,6 8 4 WZW 1030,5 12 0,0
21.01.2018 01:00:00 13,5 11,7 13 7 ZW 1030,4 10 -
21.01.2018 00:00:00 13,8 11,3 16 9 ZW 1029,9 20 0,0
20.01.2018 23:00:00 13,9 11,2 11 6 ZW 1029,7 19 0,0
20.01.2018 22:00:00 13,9 11,1 16 9 WZW 1029,8 18 -
20.01.2018 21:00:00 13,8 11,1 13 7 WZW 1029,8 18 0,0
20.01.2018 20:00:00 14,0 11,0 16 9 WZW 1029,2 17 0,0
20.01.2018 19:00:00 14,2 11,4 16 9 ZW 1028,6 19 -
20.01.2018 18:00:00 14,4 11,2 16 9 WZW 1028,2 18 0,0
20.01.2018 17:00:00 14,6 11,4 18 10 WZW 1027,8 19 0,0
20.01.2018 16:00:00 14,4 11,7 16 9 WZW 1027,3 15 -
20.01.2018 15:00:00 14,5 11,8 18 10 WZW 1027,3 14 0,0
20.01.2018 14:00:00 14,8 11,4 18 10 WZW 1027,5 18 0,0
20.01.2018 13:00:00 14,7 10,9 16 9 WZW 1027,9 20 -
20.01.2018 12:00:00 14,9 10,7 18 10 ZW 1027,9 19 0,0
20.01.2018 11:00:00 13,4 10,0 18 10 ZW 1027,9 19 0,0
20.01.2018 10:00:00 12,7 9,1 21 11 ZW 1027,9 20 -
20.01.2018 09:00:00 12,3 8,8 18 10 ZW 1027,5 18 0,0
20.01.2018 08:00:00 12,1 8,6 18 10 ZW 1027,2 18 0,0
20.01.2018 07:00:00 11,6 8,1 18 10 ZW 1027,0 20 -
20.01.2018 06:00:00 11,4 7,9 21 11 ZZW 1026,9 16 0,0
20.01.2018 05:00:00 11,1 7,6 16 9 ZZW 1027,1 15 0,0
20.01.2018 04:00:00 10,7 7,4 16 9 ZZW 1027,7 20 -
20.01.2018 03:00:00 10,8 6,7 15 8 ZZW 1027,8 16 0,0
20.01.2018 02:00:00 10,9 7,0 16 9 ZZW 1028,2 14 0,0
20.01.2018 01:00:00 10,9 6,4 11 6 ZW 1028,5 20 -
20.01.2018 00:00:00 11,3 7,2 9 5 ZZW 1028,4 14 0,0
19.01.2018 23:00:00 11,9 8,4 13 7 ZW 1028,7 15 0,0
19.01.2018 22:00:00 12,0 7,9 5 3 WZW 1029,0 20 -
19.01.2018 21:00:00 12,0 8,8 11 6 WZW 1028,7 11 0,0
19.01.2018 20:00:00 12,1 8,8 9 5 WZW 1028,8 13 0,0
19.01.2018 19:00:00 12,2 8,7 8 4 W 1028,2 12 -
19.01.2018 18:00:00 12,5 8,2 9 5 W 1028,0 14 0,0
19.01.2018 17:00:00 12,8 8,5 11 6 W 1027,7 14 0,0
19.01.2018 16:00:00 13,5 8,5 11 6 W 1027,2 15 -
19.01.2018 15:00:00 13,9 8,3 11 6 W 1027,1 16 0,0
19.01.2018 14:00:00 14,2 8,4 9 5 WNW 1027,3 14 0,0
19.01.2018 13:00:00 13,5 8,1 4 2 NNO 1027,7 22 -
19.01.2018 12:00:00 12,7 8,0 8 4 NW 1027,9 10 0,0
19.01.2018 11:00:00 12,4 7,3 8 4 N 1027,3 12 0,0
19.01.2018 10:00:00 11,9 6,2 11 6 NW 1027,1 25 -
19.01.2018 09:00:00 11,7 7,2 15 8 NW 1026,6 13 0,0
19.01.2018 08:00:00 11,7 9,9 16 9 NW 1025,8 19 0,2
19.01.2018 07:00:00 11,7 11,1 11 6 NW 1025,1 15 -
19.01.2018 06:00:00 12,1 11,6 15 8 WZW 1024,1 1,9 0,4
19.01.2018 05:00:00 12,1 11,6 11 6 ZW 1023,7 3,2 0,0
19.01.2018 04:00:00 12,0 11,5 13 7 WZW 1024,4 1,2 -
19.01.2018 03:00:00 12,0 11,4 13 7 ZW 1024,4 4,2 0,4
19.01.2018 02:00:00 12,0 11,4 9 5 ZW 1024,7 1,8 0,0
19.01.2018 01:00:00 12,1 11,3 8 4 ZW 1024,9 8 -
19.01.2018 00:00:00 12,1 11,3 11 6 ZW 1024,9 11 0,0
18.01.2018 23:00:00 12,0 11,2 9 5 ZW 1025,0 7 0,2
18.01.2018 22:00:00 12,0 11,4 11 6 ZW 1025,0 1,5 -
18.01.2018 21:00:00 12,1 11,2 11 6 ZW 1025,1 3,0 0,2
18.01.2018 20:00:00 12,2 10,8 9 5 WZW 1025,0 - 0,0
18.01.2018 19:00:00 12,3 10,7 9 5 WZW 1024,9 7 -
18.01.2018 18:00:00 12,8 10,3 9 5 W 1024,8 10 0,0
18.01.2018 17:00:00 13,0 10,0 5 3 W 1024,5 10 0,0
18.01.2018 16:00:00 12,9 9,5 8 4 WZW 1024,7 12 -
18.01.2018 15:00:00 12,6 9,6 13 7 ZW 1025,0 11 0,0
18.01.2018 14:00:00 12,8 9,1 9 5 WZW 1025,9 11 0,0
18.01.2018 13:00:00 12,4 8,5 11 6 ZW 1026,3 12 -
18.01.2018 12:00:00 11,7 8,4 11 6 ZW 1026,8 12 0,0
18.01.2018 11:00:00 11,1 8,3 9 5 ZZW 1026,7 11 0,0
18.01.2018 10:00:00 10,6 8,0 13 7 ZZW 1026,6 12 -
18.01.2018 09:00:00 10,5 7,7 13 7 ZW 1026,5 7 0,0
18.01.2018 08:00:00 10,4 6,5 5 3 Z 1026,4 12 0,0
18.01.2018 07:00:00 10,2 6,0 8 4 Z 1026,3 15 -
18.01.2018 06:00:00 10,2 5,8 5 3 Z 1026,8 13 0,0
18.01.2018 05:00:00 10,4 5,6 8 4 ZZW 1027,1 13 0,0
18.01.2018 04:00:00 10,2 5,2 5 3 ZZW 1027,6 15 -
18.01.2018 03:00:00 10,1 4,9 8 4 ZZW 1028,0 14 0,0
18.01.2018 02:00:00 10,1 4,9 8 4 Z 1028,7 13 0,0
18.01.2018 01:00:00 10,9 5,2 8 4 ZW 1029,2 12 -
18.01.2018 00:00:00 11,0 5,5 8 4 WZW 1029,7 9 0,0
17.01.2018 23:00:00 11,2 5,3 9 5 W 1030,1 10 0,0
17.01.2018 22:00:00 11,3 5,2 11 6 W 1030,0 15 -
17.01.2018 21:00:00 11,4 5,7 8 4 W 1030,0 11 0,0
17.01.2018 20:00:00 11,4 5,0 5 3 W 1029,7 14 0,0
17.01.2018 19:00:00 11,7 6,4 4 2 WZW 1029,9 7 -
17.01.2018 18:00:00 12,0 6,1 5 3 W 1030,0 8 0,0
17.01.2018 17:00:00 12,4 5,3 5 3 NW 1030,3 10 0,0
17.01.2018 16:00:00 12,5 5,9 9 5 NW 1030,7 11 -
17.01.2018 15:00:00 13,1 5,0 5 3 WNW 1030,9 11 0,0
17.01.2018 14:00:00 13,1 5,0 8 4 WNW 1031,6 9 0,0
17.01.2018 13:00:00 13,5 5,1 8 4 NW 1032,2 22 -
17.01.2018 12:00:00 13,0 6,1 9 5 N 1032,4 9 0,0
17.01.2018 11:00:00 12,2 7,1 8 4 N 1032,0 8 0,0
17.01.2018 10:00:00 11,9 6,8 11 6 NW 1031,5 12 -
17.01.2018 09:00:00 11,6 6,7 11 6 NW 1031,0 8 0,0
17.01.2018 08:00:00 11,5 7,8 13 7 WNW 1030,8 - 0,0
17.01.2018 07:00:00 11,6 5,9 13 7 WNW 1030,5 15 -
17.01.2018 06:00:00 11,8 4,7 18 10 NW 1030,5 11 0,0
17.01.2018 05:00:00 11,7 8,2 18 10 WNW 1030,4 8 0,0
17.01.2018 04:00:00 11,9 6,6 22 12 WNW 1030,4 15 -
17.01.2018 03:00:00 11,9 7,8 16 9 WNW 1029,9 9 0,0
17.01.2018 02:00:00 12,4 8,1 18 10 WNW 1029,8 11 0,0
17.01.2018 01:00:00 12,4 10,1 13 7 W 1029,4 15 -
17.01.2018 00:00:00 12,7 10,8 15 8 W 1029,1 8 0,0
16.01.2018 23:00:00 12,8 11,4 18 10 WZW 1028,9 5 0,0
16.01.2018 22:00:00 13,0 11,1 18 10 WZW 1028,3 15 -
16.01.2018 21:00:00 12,7 11,6 18 10 WZW 1028,3 13 0,4
16.01.2018 20:00:00 12,7 11,9 18 10 WZW 1028,0 3,3 0,2
16.01.2018 19:00:00 12,9 11,8 16 9 WZW 1027,2 7 -
16.01.2018 18:00:00 13,0 12,1 16 9 WZW 1027,1 9 0,0
16.01.2018 17:00:00 13,7 12,1 18 10 WZW 1026,8 7 0,0
16.01.2018 16:00:00 14,2 12,1 18 10 W 1026,5 10 -
16.01.2018 15:00:00 14,3 11,6 15 8 WZW 1027,0 17 0,0
16.01.2018 14:00:00 14,5 12,0 13 7 WZW 1027,8 18 0,0
16.01.2018 13:00:00 13,8 12,0 15 8 WZW 1028,6 10 -
16.01.2018 12:00:00 13,4 11,5 15 8 WZW 1028,8 18 0,0
16.01.2018 11:00:00 13,2 11,3 16 9 WZW 1028,1 20 0,0
16.01.2018 10:00:00 12,8 11,0 21 11 ZW 1027,9 15 -
16.01.2018 09:00:00 12,3 11,5 13 7 ZW 1027,7 3,3 0,2
16.01.2018 08:00:00 12,3 11,5 13 7 WZW 1027,3 8 0,2
16.01.2018 07:00:00 12,4 11,6 13 7 ZW 1026,5 5 -
16.01.2018 06:00:00 12,5 11,7 11 6 WZW 1026,7 9 0,2
16.01.2018 05:00:00 12,4 11,6 16 9 WZW 1026,9 6 0,6
16.01.2018 04:00:00 12,8 11,4 15 8 WZW 1026,8 15 -
16.01.2018 03:00:00 12,8 11,7 15 8 WZW 1026,5 16 0,0
16.01.2018 02:00:00 12,8 11,9 22 12 WZW 1027,0 10 0,2
16.01.2018 01:00:00 12,9 12,1 15 8 WZW 1027,0 5 -
16.01.2018 00:00:00 12,8 11,9 16 9 ZW 1026,7 16 0,2
15.01.2018 23:00:00 12,6 11,5 11 6 ZW 1026,1 2,0 0,2
15.01.2018 22:00:00 13,2 10,7 18 10 ZW 1025,8 15 -
15.01.2018 21:00:00 13,4 10,2 22 12 ZW 1025,3 20 0,0
15.01.2018 20:00:00 13,1 9,9 24 13 ZW 1024,8 20 0,0
15.01.2018 19:00:00 13,4 9,4 24 13 ZW 1024,4 20 -
15.01.2018 18:00:00 13,2 9,1 28 15 ZW 1024,2 20 0,0
15.01.2018 17:00:00 13,1 8,8 29 16 ZW 1024,0 19 0,0
15.01.2018 16:00:00 12,8 8,7 24 13 ZW 1023,9 18 -
15.01.2018 15:00:00 12,6 8,1 24 13 ZW 1024,3 18 0,0
15.01.2018 14:00:00 12,0 7,3 24 13 ZW 1025,1 20 0,0

tt = temperatuur
td = dauwpunt
ff = windsnelheid
dd = windrichting
ppp = luchtdruk
vv = zicht
rr = neerslag

Weerstations in de omgeving